STARLINK-34585 (64779 NORAD) Tracking and Keplerian Element Data

This shows tracking and keplerian element data for the satellite.

Feedback or suggestion? Click here.




ElementValue
Catalog64779
NameSTARLINK-34585
Epoch Orbit2650
Epoch Day354.00452585
Epoch Year2025
RAAN252.7311
Inclination53.1582
Eccentricity0.0001412
Argument of Perigee94.3647
Mean Anonmoly265.7515
Mean Motion15.30201241
Decay Rate0.00016487
L11 64779U 25147AA 25354.00452585 .00016487 00000+0 56752-3 0 9993
L22 64779 53.1582 252.7311 0001412 94.3647 265.7515 15.30201241 26504



Live tracking and technical data element details for STARLINK-34585 (NORAD 64779). STARLINK-34585 can be tracked NOW for your location showing map with azimuth and elevation plus other details from your city location.







IsCatalogInMostPopularTable: catalog: 64779, numindb: 18
Update: records affected: 1



GetName: 64779 STARLINK-34585

Hit Count: updated at: Thu, 21 May 2026 11:13:41 GMT